• In Österreich
  • Länderverzeichnis
  • Für 7 Tage
  • Wassertemperatur
  • Satellitenkarten
  • Wetterkarte
  • News
  • Widgets
  • user-avatar
    Anmelden

    Stündliche Wetter Bolshoe Babino

    Heute, 21 April, Samstag

    Zeit Temperatur Niederschläge Wind Luftdruck Luftfeuchtigkeit
    00:00 +8°C° 0 mm 4 m/S 744 mmHg 76%
    01:00 +8°C° 0 mm 4 m/S 744 mmHg 80%
    02:00 +8°C° 0 mm 4 m/S 743 mmHg 84%
    03:00 +8°C° 0 mm 4 m/S 743 mmHg 85%
    04:00 +8°C° 0 mm 5 m/S 742 mmHg 86%
    05:00 +7°C° 0 mm 5 m/S 741 mmHg 87%
    06:00 +9°C° 0 mm 6 m/S 740 mmHg 80%
    07:00 +10°C° 0 mm 7 m/S 739 mmHg 74%
    08:00 +12°C° 0 mm 7 m/S 738 mmHg 67%
    09:00 +15°C° 0 mm 8 m/S 737 mmHg 64%
    10:00 +16°C° 0 mm 8 m/S 736 mmHg 61%
    11:00 +18°C° 0 mm 9 m/S 735 mmHg 58%
    12:00 +18°C° 0,2 mm 9 m/S 735 mmHg 56%
    13:00 +18°C° 0,2 mm 10 m/S 734 mmHg 54%
    14:00 +19°C° 0,2 mm 11 m/S 734 mmHg 52%
    15:00 +18°C° 0,1 mm 10 m/S 734 mmHg 51%
    16:00 +16°C° 0,1 mm 10 m/S 734 mmHg 50%
    17:00 +15°C° 0,1 mm 9 m/S 735 mmHg 49%
    18:00 +13°C° 0 mm 8 m/S 735 mmHg 51%
    19:00 +11°C° 0 mm 7 m/S 736 mmHg 54%
    20:00 +9°C° 0 mm 6 m/S 737 mmHg 56%
    21:00 +9°C° 0 mm 6 m/S 737 mmHg 57%
    22:00 +8°C° 0 mm 6 m/S 737 mmHg 58%
    23:00 +6°C° 0 mm 7 m/S 738 mmHg 59%

    Morgen, 22 April, Sonntag

    Zeit Temperatur Niederschläge Wind Luftdruck Luftfeuchtigkeit
    00:00 +7°C° 0 mm 6 m/S 738 mmHg 62%
    01:00 +5°C° 0 mm 6 m/S 738 mmHg 65%
    02:00 +5°C° 0 mm 6 m/S 739 mmHg 67%
    03:00 +4°C° 0 mm 6 m/S 739 mmHg 69%
    04:00 +4°C° 0 mm 6 m/S 739 mmHg 70%
    05:00 +4°C° 0 mm 6 m/S 739 mmHg 71%
    06:00 +5°C° 0 mm 7 m/S 739 mmHg 68%
    07:00 +6°C° 0 mm 7 m/S 739 mmHg 65%
    08:00 +7°C° 0 mm 8 m/S 739 mmHg 62%
    09:00 +9°C° 0,1 mm 8 m/S 739 mmHg 58%
    10:00 +9°C° 0,1 mm 8 m/S 739 mmHg 54%
    11:00 +10°C° 0,1 mm 8 m/S 739 mmHg 50%
    12:00 +10°C° 0,3 mm 8 m/S 739 mmHg 50%
    13:00 +11°C° 0,3 mm 8 m/S 740 mmHg 50%
    14:00 +11°C° 0,3 mm 8 m/S 740 mmHg 49%
    15:00 +10°C° 0,3 mm 7 m/S 740 mmHg 52%
    16:00 +10°C° 0,3 mm 7 m/S 740 mmHg 54%
    17:00 +10°C° 0,3 mm 6 m/S 740 mmHg 56%
    18:00 +9°C° 0,1 mm 5 m/S 741 mmHg 63%
    19:00 +7°C° 0,1 mm 4 m/S 741 mmHg 70%
    20:00 +7°C° 0,1 mm 2 m/S 742 mmHg 77%
    21:00 +6°C° 0 mm 2 m/S 742 mmHg 80%
    22:00 +6°C° 0 mm 2 m/S 742 mmHg 82%
    23:00 +5°C° 0 mm 2 m/S 742 mmHg 85%

    übermorgen, 23 April, Montag

    Zeit Temperatur Niederschläge Wind Luftdruck Luftfeuchtigkeit
    00:00 +5°C° 0 mm 2 m/S 743 mmHg 86%
    01:00 +5°C° 0 mm 2 m/S 743 mmHg 86%
    02:00 +4°C° 0 mm 2 m/S 743 mmHg 87%
    03:00 +4°C° 0 mm 2 m/S 744 mmHg 87%
    04:00 +3°C° 0 mm 2 m/S 744 mmHg 88%
    05:00 +3°C° 0 mm 2 m/S 744 mmHg 88%
    06:00 +3°C° 0 mm 2 m/S 745 mmHg 81%
    07:00 +4°C° 0 mm 2 m/S 745 mmHg 74%
    08:00 +4°C° 0 mm 3 m/S 745 mmHg 66%
    09:00 +6°C° 0 mm 2 m/S 745 mmHg 60%
    10:00 +7°C° 0 mm 2 m/S 745 mmHg 54%
    11:00 +8°C° 0 mm 2 m/S 745 mmHg 48%
    12:00 +9°C° 0 mm 2 m/S 745 mmHg 45%
    13:00 +10°C° 0 mm 2 m/S 745 mmHg 42%
    14:00 +12°C° 0 mm 1 m/S 745 mmHg 38%
    15:00 +12°C° 0 mm 1 m/S 745 mmHg 39%
    16:00 +11°C° 0 mm 1 m/S 745 mmHg 40%
    17:00 +11°C° 0 mm 1 m/S 744 mmHg 40%
    18:00 +10°C° 0 mm 1 m/S 744 mmHg 45%
    19:00 +9°C° 0 mm 1 m/S 744 mmHg 49%
    20:00 +6°C° 0 mm 2 m/S 744 mmHg 54%
    21:00 +6°C° 0 mm 2 m/S 744 mmHg 56%
    22:00 +5°C° 0 mm 2 m/S 744 mmHg 57%
    23:00 +4°C° 0 mm 3 m/S 743 mmHg 59%

    24 April, Dienstag

    Zeit Temperatur Niederschläge Wind Luftdruck Luftfeuchtigkeit
    00:00 +4°C° 0 mm 3 m/S 743 mmHg 59%
    01:00 +4°C° 0 mm 4 m/S 743 mmHg 60%
    02:00 +4°C° 0 mm 4 m/S 743 mmHg 61%
    03:00 +4°C° 0,2 mm 4 m/S 742 mmHg 67%
    04:00 +4°C° 0,2 mm 4 m/S 742 mmHg 72%
    05:00 +4°C° 0,2 mm 4 m/S 741 mmHg 78%
    06:00 +4°C° 0,1 mm 4 m/S 741 mmHg 79%
    07:00 +5°C° 0,1 mm 4 m/S 741 mmHg 80%
    08:00 +6°C° 0,1 mm 5 m/S 740 mmHg 80%
    09:00 +6°C° 0,2 mm 4 m/S 740 mmHg 82%
    10:00 +6°C° 0,2 mm 4 m/S 740 mmHg 84%
    11:00 +6°C° 0,2 mm 4 m/S 740 mmHg 86%
    12:00 +6°C° 0,3 mm 4 m/S 740 mmHg 86%
    13:00 +8°C° 0,3 mm 3 m/S 740 mmHg 86%
    14:00 +8°C° 0,3 mm 3 m/S 740 mmHg 86%
    15:00 +9°C° 0,1 mm 3 m/S 740 mmHg 83%
    16:00 +10°C° 0,1 mm 3 m/S 740 mmHg 80%
    17:00 +11°C° 0,1 mm 3 m/S 739 mmHg 76%
    18:00 +10°C° 0,1 mm 3 m/S 739 mmHg 79%
    19:00 +9°C° 0,1 mm 3 m/S 739 mmHg 82%
    20:00 +8°C° 0,1 mm 3 m/S 739 mmHg 85%
    21:00 +7°C° 0 mm 3 m/S 739 mmHg 85%
    22:00 +7°C° 0 mm 3 m/S 740 mmHg 85%
    23:00 +7°C° 0 mm 3 m/S 740 mmHg 85%

    25 April, Mittwoch

    Zeit Temperatur Niederschläge Wind Luftdruck Luftfeuchtigkeit
    00:00 +5°C° 0 mm 3 m/S 740 mmHg 88%
    01:00 +4°C° 0 mm 3 m/S 739 mmHg 90%
    02:00 +3°C° 0 mm 3 m/S 739 mmHg 93%
    03:00 +4°C° 0 mm 3 m/S 739 mmHg 92%
    04:00 +4°C° 0 mm 3 m/S 739 mmHg 92%
    05:00 +4°C° 0 mm 4 m/S 739 mmHg 92%
    06:00 +5°C° 0,5 mm 4 m/S 739 mmHg 91%
    07:00 +6°C° 0,5 mm 5 m/S 738 mmHg 90%
    08:00 +7°C° 0,5 mm 5 m/S 738 mmHg 89%
    09:00 +8°C° 0,2 mm 6 m/S 738 mmHg 83%
    10:00 +9°C° 0,2 mm 6 m/S 738 mmHg 76%
    11:00 +10°C° 0,2 mm 7 m/S 738 mmHg 70%
    12:00 +10°C° 0,4 mm 6 m/S 738 mmHg 72%
    13:00 +9°C° 0,4 mm 6 m/S 738 mmHg 75%
    14:00 +9°C° 0,4 mm 5 m/S 738 mmHg 78%
    15:00 +9°C° 0,1 mm 5 m/S 737 mmHg 80%
    16:00 +9°C° 0,1 mm 5 m/S 737 mmHg 82%
    17:00 +9°C° 0,1 mm 5 m/S 737 mmHg 84%
    18:00 +8°C° 0,1 mm 4 m/S 737 mmHg 85%
    19:00 +8°C° 0,1 mm 4 m/S 737 mmHg 87%
    20:00 +7°C° 0,1 mm 4 m/S 737 mmHg 88%
    21:00 +6°C° 0 mm 4 m/S 737 mmHg 88%
    22:00 +5°C° 0 mm 4 m/S 737 mmHg 88%
    23:00 +5°C° 0 mm 4 m/S 737 mmHg 89%

    26 April, Donnerstag

    Zeit Temperatur Niederschläge Wind Luftdruck Luftfeuchtigkeit
    00:00 +4°C° 0 mm 3 m/S 737 mmHg 90%
    01:00 +3°C° 0 mm 3 m/S 738 mmHg 91%
    02:00 +3°C° 0 mm 3 m/S 738 mmHg 93%
    03:00 +3°C° 0 mm 3 m/S 738 mmHg 93%
    04:00 +2°C° 0 mm 3 m/S 738 mmHg 94%
    05:00 +2°C° 0 mm 3 m/S 738 mmHg 95%
    06:00 +3°C° 0 mm 3 m/S 738 mmHg 89%
    07:00 +5°C° 0 mm 4 m/S 738 mmHg 83%
    08:00 +6°C° 0 mm 4 m/S 738 mmHg 77%
    09:00 +8°C° 0 mm 5 m/S 738 mmHg 70%
    10:00 +9°C° 0 mm 5 m/S 738 mmHg 63%
    11:00 +11°C° 0 mm 6 m/S 738 mmHg 56%
    12:00 +11°C° 0,2 mm 6 m/S 738 mmHg 55%
    13:00 +11°C° 0,2 mm 6 m/S 739 mmHg 53%
    14:00 +12°C° 0,2 mm 7 m/S 739 mmHg 52%
    15:00 +11°C° 0,2 mm 6 m/S 739 mmHg 53%
    16:00 +11°C° 0,2 mm 6 m/S 740 mmHg 54%
    17:00 +11°C° 0,2 mm 6 m/S 740 mmHg 56%
    18:00 +9°C° 0 mm 5 m/S 741 mmHg 61%
    19:00 +8°C° 0 mm 4 m/S 741 mmHg 66%
    20:00 +8°C° 0 mm 3 m/S 742 mmHg 71%
    21:00 +7°C° 0 mm 3 m/S 742 mmHg 72%
    22:00 +5°C° 0 mm 3 m/S 742 mmHg 74%
    23:00 +5°C° 0 mm 3 m/S 743 mmHg 75%
    Mehr zeigen